Year,Month,Day,Hour,Minute,Value (Times are PST for temperature in C)
2014,10,18,00,00,13.80
2014,10,18,00,01,13.80
2014,10,18,00,02,13.80
2014,10,18,00,03,13.80
2014,10,18,00,04,13.80
2014,10,18,00,05,13.80
2014,10,18,00,06,13.80
2014,10,18,00,07,13.80
2014,10,18,00,08,13.80
2014,10,18,00,09,13.80
2014,10,18,00,10,13.70
2014,10,18,00,11,13.80
2014,10,18,00,12,13.70
2014,10,18,00,13,13.80
2014,10,18,00,14,13.80
2014,10,18,00,15,13.80
2014,10,18,00,16,13.80
2014,10,18,00,17,13.80
2014,10,18,00,18,13.80
2014,10,18,00,19,13.80
2014,10,18,00,20,13.80
2014,10,18,00,21,13.80
2014,10,18,00,22,13.80
2014,10,18,00,23,13.80
2014,10,18,00,24,13.80
2014,10,18,00,25,13.80
2014,10,18,00,26,13.80
2014,10,18,00,27,13.80
2014,10,18,00,28,13.80
2014,10,18,00,29,13.80
2014,10,18,00,30,13.80
2014,10,18,00,31,13.70
2014,10,18,00,32,13.70
2014,10,18,00,33,13.70
2014,10,18,00,34,13.70
2014,10,18,00,35,13.70
2014,10,18,00,36,13.70
2014,10,18,00,37,13.70
2014,10,18,00,38,13.70
2014,10,18,00,39,13.70
2014,10,18,00,40,13.70
2014,10,18,00,41,13.70
2014,10,18,00,42,13.80
2014,10,18,00,43,13.80
2014,10,18,00,44,13.80
2014,10,18,00,45,13.80
2014,10,18,00,46,13.90
2014,10,18,00,47,13.90
2014,10,18,00,48,13.90
2014,10,18,00,49,13.90
2014,10,18,00,50,13.90
2014,10,18,00,51,13.90
2014,10,18,00,52,13.90
2014,10,18,00,53,13.90
2014,10,18,00,54,13.90
2014,10,18,00,55,13.90
2014,10,18,00,56,13.90
2014,10,18,00,57,14.00
2014,10,18,00,58,14.00
2014,10,18,00,59,14.00
2014,10,18,01,00,14.00
2014,10,18,01,01,14.10
2014,10,18,01,02,14.10
2014,10,18,01,03,14.10
2014,10,18,01,04,14.10
2014,10,18,01,05,14.10
2014,10,18,01,06,14.10
2014,10,18,01,07,14.10
2014,10,18,01,08,14.10
2014,10,18,01,09,14.10
2014,10,18,01,10,14.10
2014,10,18,01,11,14.10
2014,10,18,01,12,14.10
2014,10,18,01,13,14.10
2014,10,18,01,14,14.10
2014,10,18,01,15,14.10
2014,10,18,01,16,14.10
2014,10,18,01,17,14.10
2014,10,18,01,18,14.10
2014,10,18,01,19,14.10
2014,10,18,01,20,14.10
2014,10,18,01,21,14.10
2014,10,18,01,22,14.10
2014,10,18,01,23,14.10
2014,10,18,01,24,14.10
2014,10,18,01,25,14.10
2014,10,18,01,26,14.10
2014,10,18,01,27,14.10
2014,10,18,01,28,14.10
2014,10,18,01,29,14.10
2014,10,18,01,30,14.10
2014,10,18,01,31,14.10
2014,10,18,01,32,14.10
2014,10,18,01,33,14.00
2014,10,18,01,34,14.00
2014,10,18,01,35,14.00
2014,10,18,01,36,14.00
2014,10,18,01,37,14.00
2014,10,18,01,38,14.00
2014,10,18,01,39,14.00
2014,10,18,01,40,14.00
2014,10,18,01,41,14.00
2014,10,18,01,42,14.00
2014,10,18,01,43,14.00
2014,10,18,01,44,14.00
2014,10,18,01,45,14.00
2014,10,18,01,46,14.00
2014,10,18,01,47,14.00
2014,10,18,01,48,14.00
2014,10,18,01,49,14.00
2014,10,18,01,50,14.00
2014,10,18,01,51,14.00
2014,10,18,01,52,14.00
2014,10,18,01,53,14.00
2014,10,18,01,54,14.00
2014,10,18,01,55,14.00
2014,10,18,01,56,14.00
2014,10,18,01,57,14.00
2014,10,18,01,58,14.00
2014,10,18,01,59,14.00
2014,10,18,02,00,14.00
2014,10,18,02,01,14.00
2014,10,18,02,02,13.90
2014,10,18,02,03,14.00
2014,10,18,02,04,14.00
2014,10,18,02,05,14.00
2014,10,18,02,06,14.00
2014,10,18,02,07,14.00
2014,10,18,02,08,14.00
2014,10,18,02,09,14.00
2014,10,18,02,10,14.00
2014,10,18,02,11,14.00
2014,10,18,02,12,14.00
2014,10,18,02,13,13.90
2014,10,18,02,14,13.90
2014,10,18,02,15,13.90
2014,10,18,02,16,13.90
2014,10,18,02,17,13.90
2014,10,18,02,18,13.90
2014,10,18,02,19,13.90
2014,10,18,02,20,13.90
2014,10,18,02,21,14.00
2014,10,18,02,22,14.00
2014,10,18,02,23,14.00
2014,10,18,02,24,14.00
2014,10,18,02,25,14.00
2014,10,18,02,26,14.00
2014,10,18,02,27,14.00
2014,10,18,02,28,14.00
2014,10,18,02,29,14.00
2014,10,18,02,30,14.00
2014,10,18,02,31,14.00
2014,10,18,02,32,14.00
2014,10,18,02,33,14.00
2014,10,18,02,34,14.00
2014,10,18,02,35,14.00
2014,10,18,02,36,14.00
2014,10,18,02,37,14.00
2014,10,18,02,38,14.00
2014,10,18,02,39,14.00
2014,10,18,02,40,14.00
2014,10,18,02,41,14.00
2014,10,18,02,42,14.00
2014,10,18,02,43,14.00
2014,10,18,02,44,14.00
2014,10,18,02,45,14.00
2014,10,18,02,46,13.90
2014,10,18,02,47,14.00
2014,10,18,02,48,14.00
2014,10,18,02,49,13.90
2014,10,18,02,50,14.00
2014,10,18,02,51,14.00
2014,10,18,02,52,14.00
2014,10,18,02,53,14.00
2014,10,18,02,54,14.00
2014,10,18,02,55,14.00
2014,10,18,02,56,14.00
2014,10,18,02,57,14.00
2014,10,18,02,58,13.90
2014,10,18,02,59,13.90
2014,10,18,03,00,13.90
2014,10,18,03,01,13.90
2014,10,18,03,02,13.90
2014,10,18,03,03,13.90
2014,10,18,03,04,13.90
2014,10,18,03,05,13.90
2014,10,18,03,06,13.90
2014,10,18,03,07,13.90
2014,10,18,03,08,13.90
2014,10,18,03,09,13.90
2014,10,18,03,10,14.00
2014,10,18,03,11,14.00
2014,10,18,03,12,14.00
2014,10,18,03,13,14.00
2014,10,18,03,14,14.00
2014,10,18,03,15,14.00
2014,10,18,03,16,14.00
2014,10,18,03,17,14.00
2014,10,18,03,18,14.00
2014,10,18,03,19,14.00
2014,10,18,03,20,14.00
2014,10,18,03,21,14.00
2014,10,18,03,22,14.00
2014,10,18,03,23,14.00
2014,10,18,03,24,14.00
2014,10,18,03,25,14.00
2014,10,18,03,26,14.00
2014,10,18,03,27,14.00
2014,10,18,03,28,14.00
2014,10,18,03,29,14.00
2014,10,18,03,30,14.00
2014,10,18,03,31,14.00
2014,10,18,03,32,13.90
2014,10,18,03,33,13.90
2014,10,18,03,34,13.90
2014,10,18,03,35,13.90
2014,10,18,03,36,13.80
2014,10,18,03,37,13.80
2014,10,18,03,38,13.80
2014,10,18,03,39,13.70
2014,10,18,03,40,13.70
2014,10,18,03,41,13.70
2014,10,18,03,42,13.60
2014,10,18,03,43,13.60
2014,10,18,03,44,13.50
2014,10,18,03,45,13.50
2014,10,18,03,46,13.50
2014,10,18,03,47,13.40
2014,10,18,03,48,13.40
2014,10,18,03,49,13.40
2014,10,18,03,50,13.30
2014,10,18,03,51,13.30
2014,10,18,03,52,13.30
2014,10,18,03,53,13.30
2014,10,18,03,54,13.30
2014,10,18,03,55,13.20
2014,10,18,03,56,13.20
2014,10,18,03,57,13.20
2014,10,18,03,58,13.20
2014,10,18,03,59,13.10
2014,10,18,04,00,13.10
2014,10,18,04,01,13.10
2014,10,18,04,02,13.10
2014,10,18,04,03,13.10
2014,10,18,04,04,13.00
2014,10,18,04,05,13.00
2014,10,18,04,06,13.00
2014,10,18,04,07,12.90
2014,10,18,04,08,12.90
2014,10,18,04,09,12.90
2014,10,18,04,10,12.90
2014,10,18,04,11,12.90
2014,10,18,04,12,12.90
2014,10,18,04,13,12.90
2014,10,18,04,14,12.90
2014,10,18,04,15,12.90
2014,10,18,04,16,12.80
2014,10,18,04,17,12.80
2014,10,18,04,18,12.80
2014,10,18,04,19,12.80
2014,10,18,04,20,12.80
2014,10,18,04,21,12.80
2014,10,18,04,22,12.80
2014,10,18,04,23,12.80
2014,10,18,04,24,12.80
2014,10,18,04,25,12.80
2014,10,18,04,26,12.80
2014,10,18,04,27,12.80
2014,10,18,04,28,12.80
2014,10,18,04,29,12.80
2014,10,18,04,30,12.80
2014,10,18,04,31,12.90
2014,10,18,04,32,12.90
2014,10,18,04,33,12.80
2014,10,18,04,34,12.80
2014,10,18,04,35,12.80
2014,10,18,04,36,12.80
2014,10,18,04,37,12.80
2014,10,18,04,38,12.80
2014,10,18,04,39,12.80
2014,10,18,04,40,12.80
2014,10,18,04,41,12.80
2014,10,18,04,42,12.80
2014,10,18,04,43,12.80
2014,10,18,04,44,12.80
2014,10,18,04,45,12.80
2014,10,18,04,46,12.80
2014,10,18,04,47,12.80
2014,10,18,04,48,12.80
2014,10,18,04,49,12.80
2014,10,18,04,50,12.80
2014,10,18,04,51,12.70
2014,10,18,04,52,12.70
2014,10,18,04,53,12.70
2014,10,18,04,54,12.70
2014,10,18,04,55,12.70
2014,10,18,04,56,12.70
2014,10,18,04,57,12.60
2014,10,18,04,58,12.60
2014,10,18,04,59,12.60
2014,10,18,05,00,12.60
2014,10,18,05,01,12.50
2014,10,18,05,02,12.50
2014,10,18,05,03,12.50
2014,10,18,05,04,12.40
2014,10,18,05,05,12.40
2014,10,18,05,06,12.40
2014,10,18,05,07,12.40
2014,10,18,05,08,12.30
2014,10,18,05,09,12.30
2014,10,18,05,10,12.30
2014,10,18,05,11,12.30
2014,10,18,05,12,12.30
2014,10,18,05,13,12.20
2014,10,18,05,14,12.20
2014,10,18,05,15,12.20
2014,10,18,05,16,12.20
2014,10,18,05,17,12.20
2014,10,18,05,18,12.20
2014,10,18,05,19,12.20
2014,10,18,05,20,12.10
2014,10,18,05,21,12.10
2014,10,18,05,22,12.10
2014,10,18,05,23,12.10
2014,10,18,05,24,12.10
2014,10,18,05,25,12.10
2014,10,18,05,26,12.10
2014,10,18,05,27,12.10
2014,10,18,05,28,12.10
2014,10,18,05,29,12.10
2014,10,18,05,30,12.10
2014,10,18,05,31,12.10
2014,10,18,05,32,12.00
2014,10,18,05,33,12.00
2014,10,18,05,34,12.00
2014,10,18,05,35,12.00
2014,10,18,05,36,12.00
2014,10,18,05,37,12.00
2014,10,18,05,38,11.90
2014,10,18,05,39,11.90
2014,10,18,05,40,11.90
2014,10,18,05,41,11.90
2014,10,18,05,42,11.90
2014,10,18,05,43,11.90
2014,10,18,05,44,11.90
2014,10,18,05,45,11.90
2014,10,18,05,46,11.90
2014,10,18,05,47,11.90
2014,10,18,05,48,11.90
2014,10,18,05,49,11.90
2014,10,18,05,50,11.90
2014,10,18,05,51,11.90
2014,10,18,05,52,11.90
2014,10,18,05,53,11.90
2014,10,18,05,54,11.90
2014,10,18,05,55,11.90
2014,10,18,05,56,11.90
2014,10,18,05,57,11.90
2014,10,18,05,58,11.90
2014,10,18,05,59,11.90
2014,10,18,06,00,11.90
2014,10,18,06,01,11.90
2014,10,18,06,02,11.90
2014,10,18,06,03,11.90
2014,10,18,06,04,11.90
2014,10,18,06,05,11.90
2014,10,18,06,06,11.90
2014,10,18,06,07,11.90
2014,10,18,06,08,11.90
2014,10,18,06,09,11.90
2014,10,18,06,10,11.90
2014,10,18,06,11,11.90
2014,10,18,06,12,11.90
2014,10,18,06,13,11.90
2014,10,18,06,14,11.90
2014,10,18,06,15,11.90
2014,10,18,06,16,11.90
2014,10,18,06,17,11.90
2014,10,18,06,18,11.90
2014,10,18,06,19,11.90
2014,10,18,06,20,11.90
2014,10,18,06,21,11.90
2014,10,18,06,22,11.90
2014,10,18,06,23,11.90
2014,10,18,06,24,11.90
2014,10,18,06,25,11.90
2014,10,18,06,26,11.90
2014,10,18,06,27,11.90
2014,10,18,06,28,11.90
2014,10,18,06,29,11.90
2014,10,18,06,30,11.90
2014,10,18,06,31,11.90
2014,10,18,06,32,11.90
2014,10,18,06,33,12.00
2014,10,18,06,34,12.00
2014,10,18,06,35,12.10
2014,10,18,06,36,12.10
2014,10,18,06,37,12.20
2014,10,18,06,38,12.30
2014,10,18,06,39,12.30
2014,10,18,06,40,12.30
2014,10,18,06,41,12.30
2014,10,18,06,42,12.30
2014,10,18,06,43,12.40
2014,10,18,06,44,12.40
2014,10,18,06,45,12.40
2014,10,18,06,46,12.40
2014,10,18,06,47,12.40
2014,10,18,06,48,12.40
2014,10,18,06,49,12.40
2014,10,18,06,50,12.40
2014,10,18,06,51,12.50
2014,10,18,06,52,12.50
2014,10,18,06,53,12.50
2014,10,18,06,54,12.60
2014,10,18,06,55,12.60
2014,10,18,06,56,12.60
2014,10,18,06,57,12.60
2014,10,18,06,58,12.70
2014,10,18,06,59,12.70
2014,10,18,07,00,12.70
2014,10,18,07,01,12.70
2014,10,18,07,02,12.70
2014,10,18,07,03,12.70
2014,10,18,07,04,12.80
2014,10,18,07,05,12.80
2014,10,18,07,06,12.80
2014,10,18,07,07,12.90
2014,10,18,07,08,12.90
2014,10,18,07,09,12.90
2014,10,18,07,10,12.90
2014,10,18,07,11,12.90
2014,10,18,07,12,12.90
2014,10,18,07,13,12.90
2014,10,18,07,14,12.90
2014,10,18,07,15,12.80
2014,10,18,07,16,12.80
2014,10,18,07,17,12.80
2014,10,18,07,18,12.80
2014,10,18,07,19,12.80
2014,10,18,07,20,12.80
2014,10,18,07,21,12.80
2014,10,18,07,22,12.70
2014,10,18,07,23,12.70
2014,10,18,07,24,12.70
2014,10,18,07,25,12.70
2014,10,18,07,26,12.70
2014,10,18,07,27,12.70
2014,10,18,07,28,12.70
2014,10,18,07,29,12.80
2014,10,18,07,30,12.80
2014,10,18,07,31,12.80
2014,10,18,07,32,12.80
2014,10,18,07,33,12.90
2014,10,18,07,34,12.90
2014,10,18,07,35,12.90
2014,10,18,07,36,12.90
2014,10,18,07,37,13.00
2014,10,18,07,38,13.00
2014,10,18,07,39,13.10
2014,10,18,07,40,13.10
2014,10,18,07,41,13.10
2014,10,18,07,42,13.10
2014,10,18,07,43,13.10
2014,10,18,07,44,13.10
2014,10,18,07,45,13.10
2014,10,18,07,46,13.10
2014,10,18,07,47,13.10
2014,10,18,07,48,13.10
2014,10,18,07,49,13.10
2014,10,18,07,50,13.10
2014,10,18,07,51,13.10
2014,10,18,07,52,13.10
2014,10,18,07,53,13.10
2014,10,18,07,54,13.00
2014,10,18,07,55,13.00
2014,10,18,07,56,13.00
2014,10,18,07,57,13.00
2014,10,18,07,58,13.00
2014,10,18,07,59,12.90
2014,10,18,08,00,12.90
2014,10,18,08,01,12.90
2014,10,18,08,02,12.80
2014,10,18,08,03,12.80
2014,10,18,08,04,12.80
2014,10,18,08,05,12.80
2014,10,18,08,06,12.80
2014,10,18,08,07,12.80
2014,10,18,08,08,12.70
2014,10,18,08,09,12.70
2014,10,18,08,10,12.70
2014,10,18,08,11,12.70
2014,10,18,08,12,12.70
2014,10,18,08,13,12.70
2014,10,18,08,14,12.60
2014,10,18,08,15,12.60
2014,10,18,08,16,12.60
2014,10,18,08,17,12.60
2014,10,18,08,18,12.60
2014,10,18,08,19,12.60
2014,10,18,08,20,12.60
2014,10,18,08,21,12.60
2014,10,18,08,22,12.60
2014,10,18,08,23,12.60
2014,10,18,08,24,12.50
2014,10,18,08,25,12.50
2014,10,18,08,26,12.50
2014,10,18,08,27,12.50
2014,10,18,08,28,12.50
2014,10,18,08,29,12.50
2014,10,18,08,30,12.50
2014,10,18,08,31,12.40
2014,10,18,08,32,12.40
2014,10,18,08,33,12.40
2014,10,18,08,34,12.40
2014,10,18,08,35,12.40
2014,10,18,08,36,12.40
2014,10,18,08,37,12.40
2014,10,18,08,38,12.40
2014,10,18,08,39,12.40
2014,10,18,08,40,12.40
2014,10,18,08,41,12.40
2014,10,18,08,42,12.40
2014,10,18,08,43,12.40
2014,10,18,08,44,12.40
2014,10,18,08,45,12.40
2014,10,18,08,46,12.40
2014,10,18,08,47,12.50
2014,10,18,08,48,12.50
2014,10,18,08,49,12.50
2014,10,18,08,50,12.50
2014,10,18,08,51,12.50
2014,10,18,08,52,12.60
2014,10,18,08,53,12.50
2014,10,18,08,54,12.60
2014,10,18,08,55,12.60
2014,10,18,08,56,12.60
2014,10,18,08,57,12.60
2014,10,18,08,58,12.60
2014,10,18,08,59,12.60
2014,10,18,09,00,12.60
2014,10,18,09,01,12.60
2014,10,18,09,02,12.70
2014,10,18,09,03,12.70
2014,10,18,09,04,12.70
2014,10,18,09,05,12.70
2014,10,18,09,06,12.70
2014,10,18,09,07,12.80
2014,10,18,09,08,12.80
2014,10,18,09,09,12.80
2014,10,18,09,10,12.90
2014,10,18,09,11,12.90
2014,10,18,09,12,13.00
2014,10,18,09,13,13.00
2014,10,18,09,14,13.10
2014,10,18,09,15,13.10
2014,10,18,09,16,13.20
2014,10,18,09,17,13.30
2014,10,18,09,18,13.30
2014,10,18,09,19,13.40
2014,10,18,09,20,13.40
2014,10,18,09,21,13.50
2014,10,18,09,22,13.50
2014,10,18,09,23,13.60
2014,10,18,09,24,13.70
2014,10,18,09,25,13.70
2014,10,18,09,26,13.70
2014,10,18,09,27,13.80
2014,10,18,09,28,13.80
2014,10,18,09,29,13.90
2014,10,18,09,30,13.90
2014,10,18,09,31,13.90
2014,10,18,09,32,14.00
2014,10,18,09,33,14.00
2014,10,18,09,34,14.00
2014,10,18,09,35,14.10
2014,10,18,09,36,14.10
2014,10,18,09,37,14.10
2014,10,18,09,38,14.10
2014,10,18,09,39,14.10
2014,10,18,09,40,14.20
2014,10,18,09,41,14.20
2014,10,18,09,42,14.20
2014,10,18,09,43,14.20
2014,10,18,09,44,14.20
2014,10,18,09,45,14.20
2014,10,18,09,46,14.20
2014,10,18,09,47,14.20
2014,10,18,09,48,14.30
2014,10,18,09,49,14.30
2014,10,18,09,50,14.30
2014,10,18,09,51,14.30
2014,10,18,09,52,14.30
2014,10,18,09,53,14.40
2014,10,18,09,54,14.40
2014,10,18,09,55,14.40
2014,10,18,09,56,14.40
2014,10,18,09,57,14.40
2014,10,18,09,58,14.40
2014,10,18,09,59,14.50
2014,10,18,10,00,14.50
2014,10,18,10,01,14.50
2014,10,18,10,02,14.50
2014,10,18,10,03,14.50
2014,10,18,10,04,14.60
2014,10,18,10,05,14.50
2014,10,18,10,06,14.60
2014,10,18,10,07,14.60
2014,10,18,10,08,14.60
2014,10,18,10,09,14.60
2014,10,18,10,10,14.60
2014,10,18,10,11,14.60
2014,10,18,10,12,14.60
2014,10,18,10,13,14.60
2014,10,18,10,14,14.60
2014,10,18,10,15,14.60
2014,10,18,10,16,14.60
2014,10,18,10,17,14.60
2014,10,18,10,18,14.60
2014,10,18,10,19,14.60
2014,10,18,10,20,14.60
2014,10,18,10,21,14.60
2014,10,18,10,22,14.60
2014,10,18,10,23,14.60
2014,10,18,10,24,14.60
2014,10,18,10,25,14.60
2014,10,18,10,26,14.60
2014,10,18,10,27,14.60
2014,10,18,10,28,14.60
2014,10,18,10,29,14.60
2014,10,18,10,30,14.60
2014,10,18,10,31,14.60
2014,10,18,10,32,14.60
2014,10,18,10,33,14.60
2014,10,18,10,34,14.60
2014,10,18,10,35,14.60
2014,10,18,10,36,14.50
2014,10,18,10,37,14.50
2014,10,18,10,38,14.50
2014,10,18,10,39,14.50
2014,10,18,10,40,14.50
2014,10,18,10,41,14.50
2014,10,18,10,42,14.50
2014,10,18,10,43,14.50
2014,10,18,10,44,14.60
2014,10,18,10,45,14.60
2014,10,18,10,46,14.70
2014,10,18,10,47,14.70
2014,10,18,10,48,14.80
2014,10,18,10,49,14.80
2014,10,18,10,50,14.80
2014,10,18,10,51,14.90
2014,10,18,10,52,14.90
2014,10,18,10,53,14.90
2014,10,18,10,54,14.90
2014,10,18,10,55,14.90
2014,10,18,10,56,14.90
2014,10,18,10,57,14.90
2014,10,18,10,58,15.00
2014,10,18,10,59,15.00
2014,10,18,11,00,15.00
2014,10,18,11,01,15.00
2014,10,18,11,02,15.10
2014,10,18,11,03,15.10
2014,10,18,11,04,15.10
2014,10,18,11,05,15.10
2014,10,18,11,06,15.20
2014,10,18,11,07,15.20
2014,10,18,11,08,15.20
2014,10,18,11,09,15.20
2014,10,18,11,10,15.20
2014,10,18,11,11,15.20
2014,10,18,11,12,15.20
2014,10,18,11,13,15.20
2014,10,18,11,14,15.20
2014,10,18,11,15,15.20
2014,10,18,11,16,15.20
2014,10,18,11,17,15.30
2014,10,18,11,18,15.30
2014,10,18,11,19,15.30
2014,10,18,11,20,15.30
2014,10,18,11,21,15.30
2014,10,18,11,22,15.30
2014,10,18,11,23,15.30
2014,10,18,11,24,15.40
2014,10,18,11,25,15.40
2014,10,18,11,26,15.50
2014,10,18,11,27,15.50
2014,10,18,11,28,15.60
2014,10,18,11,29,15.60
2014,10,18,11,30,15.70
2014,10,18,11,31,15.80
2014,10,18,11,32,15.90
2014,10,18,11,33,15.90
2014,10,18,11,34,16.00
2014,10,18,11,35,16.00
2014,10,18,11,36,16.00
2014,10,18,11,37,16.00
2014,10,18,11,38,16.00
2014,10,18,11,39,15.90
2014,10,18,11,40,15.90
2014,10,18,11,41,15.90
2014,10,18,11,42,15.90
2014,10,18,11,43,15.90
2014,10,18,11,44,15.90
2014,10,18,11,45,15.90
2014,10,18,11,46,15.90
2014,10,18,11,47,16.00
2014,10,18,11,48,16.10
2014,10,18,11,49,16.10
2014,10,18,11,50,16.10
2014,10,18,11,51,16.20
2014,10,18,11,52,16.20
2014,10,18,11,53,16.20
2014,10,18,11,54,16.30
2014,10,18,11,55,16.30
2014,10,18,11,56,16.40
2014,10,18,11,57,16.50
2014,10,18,11,58,16.60
2014,10,18,11,59,16.70
2014,10,18,12,00,16.70
2014,10,18,12,01,16.80
2014,10,18,12,02,16.90
2014,10,18,12,03,17.00
2014,10,18,12,04,17.10
2014,10,18,12,05,17.10
2014,10,18,12,06,17.00
2014,10,18,12,07,17.00
2014,10,18,12,08,16.90
2014,10,18,12,09,16.90
2014,10,18,12,10,16.90
2014,10,18,12,11,16.80
2014,10,18,12,12,16.80
2014,10,18,12,13,16.80
2014,10,18,12,14,16.80
2014,10,18,12,15,16.70
2014,10,18,12,16,16.70
2014,10,18,12,17,16.60
2014,10,18,12,18,16.60
2014,10,18,12,19,16.60
2014,10,18,12,20,16.50
2014,10,18,12,21,16.40
2014,10,18,12,22,16.40
2014,10,18,12,23,16.40
2014,10,18,12,24,16.30
2014,10,18,12,25,16.30
2014,10,18,12,26,16.30
2014,10,18,12,27,16.30
2014,10,18,12,28,16.30
2014,10,18,12,29,16.30
2014,10,18,12,30,16.30
2014,10,18,12,31,16.30
2014,10,18,12,32,16.30
2014,10,18,12,33,16.30
2014,10,18,12,34,16.30
2014,10,18,12,35,16.30
2014,10,18,12,36,16.30
2014,10,18,12,37,16.30
2014,10,18,12,38,16.30
2014,10,18,12,39,16.20
2014,10,18,12,40,16.20
2014,10,18,12,41,16.20
2014,10,18,12,42,16.20
2014,10,18,12,43,16.20
2014,10,18,12,44,16.20
2014,10,18,12,45,16.20
2014,10,18,12,46,16.20
2014,10,18,12,47,16.20
2014,10,18,12,48,16.20
2014,10,18,12,49,16.20
2014,10,18,12,50,16.20
2014,10,18,12,51,16.20
2014,10,18,12,52,16.20
2014,10,18,12,53,16.20
2014,10,18,12,54,16.30
2014,10,18,12,55,16.30
2014,10,18,12,56,16.30
2014,10,18,12,57,16.30
2014,10,18,12,58,16.40
2014,10,18,12,59,16.50
2014,10,18,13,00,16.60
2014,10,18,13,01,16.70
2014,10,18,13,02,16.80
2014,10,18,13,03,16.90
2014,10,18,13,04,17.00
2014,10,18,13,05,17.20
2014,10,18,13,06,17.20
2014,10,18,13,07,17.30
2014,10,18,13,08,17.40
2014,10,18,13,09,17.40
2014,10,18,13,10,17.30
2014,10,18,13,11,17.30
2014,10,18,13,12,17.30
2014,10,18,13,13,17.30
2014,10,18,13,14,17.30
2014,10,18,13,15,17.30
2014,10,18,13,16,17.20
2014,10,18,13,17,17.20
2014,10,18,13,18,17.10
2014,10,18,13,19,17.10
2014,10,18,13,20,17.10
2014,10,18,13,21,17.00
2014,10,18,13,22,17.00
2014,10,18,13,23,16.90
2014,10,18,13,24,16.90
2014,10,18,13,25,16.80
2014,10,18,13,26,16.70
2014,10,18,13,27,16.70
2014,10,18,13,28,16.70
2014,10,18,13,29,16.60
2014,10,18,13,30,16.60
2014,10,18,13,31,16.60
2014,10,18,13,32,16.60
2014,10,18,13,33,16.50
2014,10,18,13,34,16.50
2014,10,18,13,35,16.50
2014,10,18,13,36,16.40
2014,10,18,13,37,16.40
2014,10,18,13,38,16.40
2014,10,18,13,39,16.40
2014,10,18,13,40,16.40
2014,10,18,13,41,16.40
2014,10,18,13,42,16.40
2014,10,18,13,43,16.40
2014,10,18,13,44,16.50
2014,10,18,13,45,16.40
2014,10,18,13,46,16.40
2014,10,18,13,47,16.40
2014,10,18,13,48,16.40
2014,10,18,13,49,16.40
2014,10,18,13,50,16.40
2014,10,18,13,51,16.40
2014,10,18,13,52,16.40
2014,10,18,13,53,16.40
2014,10,18,13,54,16.40
2014,10,18,13,55,16.40
2014,10,18,13,56,16.40
2014,10,18,13,57,16.30
2014,10,18,13,58,16.30
2014,10,18,13,59,16.30
2014,10,18,14,00,16.30
2014,10,18,14,01,16.30
2014,10,18,14,02,16.30
2014,10,18,14,03,16.30
2014,10,18,14,04,16.20
2014,10,18,14,05,16.20
2014,10,18,14,06,16.20
2014,10,18,14,07,16.20
2014,10,18,14,08,16.20
2014,10,18,14,09,16.20
2014,10,18,14,10,16.20
2014,10,18,14,11,16.20
2014,10,18,14,12,16.20
2014,10,18,14,13,16.20
2014,10,18,14,14,16.20
2014,10,18,14,15,16.20
2014,10,18,14,16,16.20
2014,10,18,14,17,16.20
2014,10,18,14,18,16.20
2014,10,18,14,19,16.20
2014,10,18,14,20,16.20
2014,10,18,14,21,16.20
2014,10,18,14,22,16.20
2014,10,18,14,23,16.10
2014,10,18,14,24,16.10
2014,10,18,14,25,16.10
2014,10,18,14,26,16.10
2014,10,18,14,27,16.10
2014,10,18,14,28,16.10
2014,10,18,14,29,16.10
2014,10,18,14,30,16.10
2014,10,18,14,31,16.10
2014,10,18,14,32,16.10
2014,10,18,14,33,16.10
2014,10,18,14,34,16.10
2014,10,18,14,35,16.10
2014,10,18,14,36,16.10
2014,10,18,14,37,16.10
2014,10,18,14,38,16.10
2014,10,18,14,39,16.10
2014,10,18,14,40,16.10
2014,10,18,14,41,16.10
2014,10,18,14,42,16.10
2014,10,18,14,43,16.10
2014,10,18,14,44,16.10
2014,10,18,14,45,16.10
2014,10,18,14,46,16.00
2014,10,18,14,47,16.00
2014,10,18,14,48,16.00
2014,10,18,14,49,16.00
2014,10,18,14,50,16.00
2014,10,18,14,51,16.00
2014,10,18,14,52,16.00
2014,10,18,14,53,16.00
2014,10,18,14,54,16.00
2014,10,18,14,55,16.00
2014,10,18,14,56,16.00
2014,10,18,14,57,16.00
2014,10,18,14,58,16.00
2014,10,18,14,59,16.00
2014,10,18,15,00,16.00
2014,10,18,15,01,16.00
2014,10,18,15,02,16.00
2014,10,18,15,03,16.00
2014,10,18,15,04,16.00
2014,10,18,15,05,16.00
2014,10,18,15,06,16.00
2014,10,18,15,07,16.00
2014,10,18,15,08,16.00
2014,10,18,15,09,16.10
2014,10,18,15,10,16.10
2014,10,18,15,11,16.10
2014,10,18,15,12,16.10
2014,10,18,15,13,16.10
2014,10,18,15,14,16.10
2014,10,18,15,15,16.10
2014,10,18,15,16,16.10
2014,10,18,15,17,16.10
2014,10,18,15,18,16.10
2014,10,18,15,19,16.10
2014,10,18,15,20,16.10
2014,10,18,15,21,16.10
2014,10,18,15,22,16.10
2014,10,18,15,23,16.10
2014,10,18,15,24,16.10
2014,10,18,15,25,16.10
2014,10,18,15,26,16.00
2014,10,18,15,27,16.00
2014,10,18,15,28,16.00
2014,10,18,15,29,16.00
2014,10,18,15,30,15.90
2014,10,18,15,31,15.90
2014,10,18,15,32,15.90
2014,10,18,15,33,15.90
2014,10,18,15,34,15.80
2014,10,18,15,35,15.80
2014,10,18,15,36,15.80
2014,10,18,15,37,15.80
2014,10,18,15,38,15.70
2014,10,18,15,39,15.70
2014,10,18,15,40,15.70
2014,10,18,15,41,15.60
2014,10,18,15,42,15.60
2014,10,18,15,43,15.60
2014,10,18,15,44,15.50
2014,10,18,15,45,15.50
2014,10,18,15,46,15.50
2014,10,18,15,47,15.40
2014,10,18,15,48,15.40
2014,10,18,15,49,15.40
2014,10,18,15,50,15.40
2014,10,18,15,51,15.40
2014,10,18,15,52,15.40
2014,10,18,15,53,15.30
2014,10,18,15,54,15.30
2014,10,18,15,55,15.30
2014,10,18,15,56,15.30
2014,10,18,15,57,15.30
2014,10,18,15,58,15.30
2014,10,18,15,59,15.30
2014,10,18,16,00,15.30
2014,10,18,16,01,15.30
2014,10,18,16,02,15.20
2014,10,18,16,03,15.20
2014,10,18,16,04,15.20
2014,10,18,16,05,15.20
2014,10,18,16,06,15.10
2014,10,18,16,07,15.10
2014,10,18,16,08,15.10
2014,10,18,16,09,15.00
2014,10,18,16,10,15.00
2014,10,18,16,11,15.00
2014,10,18,16,12,15.00
2014,10,18,16,13,15.00
2014,10,18,16,14,15.00
2014,10,18,16,15,15.00
2014,10,18,16,16,15.00
2014,10,18,16,17,15.00
2014,10,18,16,18,15.00
2014,10,18,16,19,15.00
2014,10,18,16,20,15.00
2014,10,18,16,21,15.00
2014,10,18,16,22,15.00
2014,10,18,16,23,15.00
2014,10,18,16,24,15.00
2014,10,18,16,25,15.00
2014,10,18,16,26,15.00
2014,10,18,16,27,15.00
2014,10,18,16,28,15.00
2014,10,18,16,29,15.00
2014,10,18,16,30,15.00
2014,10,18,16,31,15.10
2014,10,18,16,32,15.10
2014,10,18,16,33,15.10
2014,10,18,16,34,15.10
2014,10,18,16,35,15.10
2014,10,18,16,36,15.10
2014,10,18,16,37,15.10
2014,10,18,16,38,15.10
2014,10,18,16,39,15.10
2014,10,18,16,40,15.10
2014,10,18,16,41,15.10
2014,10,18,16,42,15.10
2014,10,18,16,43,15.10
2014,10,18,16,44,15.10
2014,10,18,16,45,15.10
2014,10,18,16,46,15.10
2014,10,18,16,47,15.10
2014,10,18,16,48,15.10
2014,10,18,16,49,15.10
2014,10,18,16,50,15.10
2014,10,18,16,51,15.10
2014,10,18,16,52,15.00
2014,10,18,16,53,15.00
2014,10,18,16,54,15.00
2014,10,18,16,55,15.00
2014,10,18,16,56,14.90
2014,10,18,16,57,14.90
2014,10,18,16,58,14.90
2014,10,18,16,59,14.90
2014,10,18,17,00,14.90
2014,10,18,17,01,14.90
2014,10,18,17,02,14.90
2014,10,18,17,03,14.90
2014,10,18,17,04,14.90
2014,10,18,17,05,14.90
2014,10,18,17,06,15.00
2014,10,18,17,07,15.00
2014,10,18,17,08,15.00
2014,10,18,17,09,15.00
2014,10,18,17,10,15.10
2014,10,18,17,11,15.10
2014,10,18,17,12,15.10
2014,10,18,17,13,15.10
2014,10,18,17,14,15.10
2014,10,18,17,15,15.10
2014,10,18,17,16,15.10
2014,10,18,17,17,15.10
2014,10,18,17,18,15.10
2014,10,18,17,19,15.10